Menu Close Menu
Station Historical Data
Daily Summary for August 29, 2017 Units:  Metric    English   Both
« Previous Day
Next Day »
Daily Weekly Monthly Yearly Custom
  High: Low: Average:
Temperature: 27.5 °C 18.7 °C 23 °C
Dew Point: 19.2 °C 14.4 °C 17.1 °C
Humidity: 83% 56% 70%
Wind Speed: 1.6km/h 0km/h 0km/h
Wind Gust: 4.8km/h - -
Wind- - West
Pressure: 1016.8 hPa 1014.1 hPa -
Precipitation: 0 mm    
Historical Graphs
 
 
Tabular Data for August 29, 2017
Time Temperature Dew Point Pressure Wind Wind Speed Wind Gust Humidity Rainfall Rate (Hourly) solar Conditions
00:00 21.3 °C 14.7 °C 1015.5 hPa Calm   1.6 km/h 66% 0 mm WeatherDisplay:10.37 W/m2 BKN
00:05 21.3 °C 14.7 °C 1015.5 hPa Calm   1.6 km/h 66% 0 mm WeatherDisplay:10.37 W/m2 BKN
00:10 21.3 °C 14.7 °C 1015.5 hPa Calm   3.2 km/h 66% 0 mm WeatherDisplay:10.37 W/m2 BKN
00:15 21.3 °C 14.7 °C 1015.5 hPa Calm   3.2 km/h 66% 0 mm WeatherDisplay:10.37 W/m2 BKN
00:20 21.3 °C 14.7 °C 1015.8 hPa Calm   1.6 km/h 66% 0 mm WeatherDisplay:10.37 W/m2 BKN
00:25 21.2 °C 14.6 °C 1015.8 hPa Calm   3.2 km/h 66% 0 mm WeatherDisplay:10.37 W/m2 BKN
00:30 21.2 °C 14.8 °C 1015.5 hPa Calm     67% 0 mm WeatherDisplay:10.37 W/m2 BKN
00:40 21.1 °C 14.7 °C 1015.5 hPa Calm   1.6 km/h 67% 0 mm WeatherDisplay:10.37 W/m2 BKN
00:45 21.1 °C 14.7 °C 1015.5 hPa Calm   1.6 km/h 67% 0 mm WeatherDisplay:10.37 W/m2 BKN
00:50 21.1 °C 14.4 °C 1015.5 hPa Calm   1.6 km/h 66% 0 mm WeatherDisplay:10.37 W/m2 BKN
00:55 21.1 °C 14.7 °C 1015.5 hPa Calm   1.6 km/h 67% 0 mm WeatherDisplay:10.37 W/m2 BKN
01:00 21.1 °C 14.7 °C 1015.5 hPa Calm   1.6 km/h 67% 0 mm WeatherDisplay:10.37 W/m2 BKN
01:05 21.1 °C 14.4 °C 1015.5 hPa Calm   1.6 km/h 66% 0 mm WeatherDisplay:10.37 W/m2 BKN
01:10 21.1 °C 14.4 °C 1015.5 hPa Calm   4.8 km/h 66% 0 mm WeatherDisplay:10.37 W/m2 BKN
01:15 21.1 °C 14.5 °C 1015.5 hPa Calm   3.2 km/h 66% 0 mm WeatherDisplay:10.37 W/m2 BKN
01:20 21.1 °C 14.5 °C 1015.5 hPa Calm   3.2 km/h 66% 0 mm WeatherDisplay:10.37 W/m2 BKN
01:25 21.1 °C 14.5 °C 1015.5 hPa West 1.6 km/h 4.8 km/h 66% 0 mm WeatherDisplay:10.37 W/m2 BKN
01:30 21.1 °C 14.5 °C 1015.5 hPa Calm   3.2 km/h 66% 0 mm WeatherDisplay:10.37 W/m2 BKN
01:35 21.1 °C 14.4 °C 1015.5 hPa Calm   3.2 km/h 66% 0 mm WeatherDisplay:10.37 W/m2 BKN
01:40 21 °C 14.6 °C 1015.5 hPa WNW 1.6 km/h 3.2 km/h 67% 0 mm WeatherDisplay:10.37 W/m2 BKN
01:45 20.9 °C 14.6 °C 1015.5 hPa Calm   3.2 km/h 67% 0 mm WeatherDisplay:10.37 W/m2 BKN
01:50 20.9 °C 14.6 °C 1015.1 hPa Calm   4.8 km/h 67% 0 mm WeatherDisplay:10.37 W/m2 BKN
02:00 20.9 °C 14.7 °C 1015.1 hPa Calm   3.2 km/h 68% 0 mm WeatherDisplay:10.37 W/m2 BKN
02:05 20.8 °C 14.7 °C 1015.1 hPa Calm   3.2 km/h 68% 0 mm WeatherDisplay:10.37 W/m2 BKN
02:10 20.8 °C 14.7 °C 1015.1 hPa Calm   1.6 km/h 68% 0 mm WeatherDisplay:10.37 W/m2 BKN
02:15 20.7 °C 14.6 °C 1015.1 hPa Calm   1.6 km/h 68% 0 mm WeatherDisplay:10.37 W/m2 BKN
02:20 20.7 °C 14.6 °C 1015.1 hPa Calm   1.6 km/h 68% 0 mm WeatherDisplay:10.37 W/m2 BKN
02:25 20.7 °C 14.8 °C 1015.1 hPa Calm   1.6 km/h 69% 0 mm WeatherDisplay:10.37 W/m2 BKN
02:30 20.6 °C 14.7 °C 1015.1 hPa Calm   1.6 km/h 69% 0 mm WeatherDisplay:10.37 W/m2 BKN
02:40 20.6 °C 14.7 °C 1015.1 hPa Calm   1.6 km/h 69% 0 mm WeatherDisplay:10.37 W/m2 BKN
02:45 20.6 °C 14.7 °C 1015.1 hPa Calm     69% 0 mm WeatherDisplay:10.37 W/m2 BKN
02:50 20.6 °C 14.7 °C 1015.1 hPa Calm   1.6 km/h 69% 0 mm WeatherDisplay:10.37 W/m2 BKN
02:55 20.6 °C 14.7 °C 1015.1 hPa Calm   1.6 km/h 69% 0 mm WeatherDisplay:10.37 W/m2 BKN
03:00 20.5 °C 14.8 °C 1015.1 hPa Calm   1.6 km/h 70% 0 mm WeatherDisplay:10.37 W/m2 BKN
03:05 20.5 °C 14.8 °C 1015.1 hPa Calm   1.6 km/h 70% 0 mm WeatherDisplay:10.37 W/m2 BKN
03:10 20.5 °C 14.8 °C 1015.1 hPa Calm   1.6 km/h 70% 0 mm WeatherDisplay:10.37 W/m2 BKN
03:15 20.4 °C 14.8 °C 1015.1 hPa Calm   1.6 km/h 70% 0 mm WeatherDisplay:10.37 W/m2 BKN
03:20 20.4 °C 14.8 °C 1015.1 hPa Calm     70% 0 mm WeatherDisplay:10.37 W/m2 BKN
03:25 20.4 °C 14.8 °C 1015.1 hPa Calm     70% 0 mm WeatherDisplay:10.37 W/m2 BKN
03:30 20.4 °C 14.8 °C 1015.1 hPa Calm     70% 0 mm WeatherDisplay:10.37 W/m2 BKN
03:35 20.4 °C 15 °C 1015.1 hPa Calm   1.6 km/h 71% 0 mm WeatherDisplay:10.37 W/m2 BKN
03:40 20.4 °C 14.7 °C 1015.1 hPa Calm   1.6 km/h 70% 0 mm WeatherDisplay:10.37 W/m2 BKN
03:45 20.4 °C 14.7 °C 1015.1 hPa Calm     70% 0 mm WeatherDisplay:10.37 W/m2 BKN
03:50 20.4 °C 14.9 °C 1015.1 hPa Calm     71% 0 mm WeatherDisplay:10.37 W/m2 BKN
03:55 20.4 °C 14.7 °C 1014.8 hPa Calm     70% 0 mm WeatherDisplay:10.37 W/m2 BKN
04:00 20.4 °C 14.7 °C 1014.8 hPa Calm     70% 0 mm WeatherDisplay:10.37 W/m2 BKN
04:10 20.4 °C 14.7 °C 1014.8 hPa Calm   1.6 km/h 70% 0 mm WeatherDisplay:10.37 W/m2 BKN
04:15 20.4 °C 14.7 °C 1014.8 hPa Calm   1.6 km/h 70% 0 mm WeatherDisplay:10.37 W/m2 BKN
04:20 20.3 °C 14.7 °C 1014.8 hPa Calm   1.6 km/h 70% 0 mm WeatherDisplay:10.37 W/m2 BKN
04:25 20.3 °C 14.6 °C 1014.8 hPa Calm   1.6 km/h 70% 0 mm WeatherDisplay:10.37 W/m2 BKN
04:30 20.3 °C 14.8 °C 1014.4 hPa Calm     71% 0 mm WeatherDisplay:10.37 W/m2 BKN
04:35 20.3 °C 14.6 °C 1014.4 hPa Calm     70% 0 mm WeatherDisplay:10.37 W/m2 BKN
04:40 20.3 °C 14.8 °C 1014.8 hPa Calm     71% 0 mm WeatherDisplay:10.37 W/m2 BKN
04:45 20.3 °C 14.8 °C 1014.8 hPa Calm     71% 0 mm WeatherDisplay:10.37 W/m2 BKN
04:50 20.2 °C 15 °C 1014.8 hPa Calm     72% 0 mm WeatherDisplay:10.37 W/m2 BKN
04:55 20.2 °C 14.7 °C 1014.8 hPa Calm     71% 0 mm WeatherDisplay:10.37 W/m2 BKN
05:00 20.2 °C 14.9 °C 1014.8 hPa Calm     72% 0 mm WeatherDisplay:10.37 W/m2 BKN
05:05 20.1 °C 15.1 °C 1014.8 hPa Calm     73% 0 mm WeatherDisplay:10.37 W/m2 BKN
05:10 20.1 °C 14.8 °C 1014.8 hPa Calm     72% 0 mm WeatherDisplay:10.37 W/m2 BKN
05:15 20 °C 15 °C 1014.4 hPa Calm     73% 0 mm WeatherDisplay:10.37 W/m2 BKN
05:20 19.9 °C 15.2 °C 1014.4 hPa Calm     74% 0 mm WeatherDisplay:10.37 W/m2 BKN
05:25 19.8 °C 15.1 °C 1014.4 hPa Calm     74% 0 mm WeatherDisplay:10.37 W/m2 BKN
05:30 19.8 °C 15.2 °C 1014.4 hPa Calm     75% 0 mm WeatherDisplay:10.37 W/m2 BKN
05:35 19.7 °C 15.1 °C 1014.1 hPa Calm     75% 0 mm WeatherDisplay:10.37 W/m2 BKN
05:40 19.6 °C 15.1 °C 1014.4 hPa Calm     75% 0 mm WeatherDisplay:10.37 W/m2 BKN
05:45 19.5 °C 15.2 °C 1014.8 hPa Calm     76% 0 mm WeatherDisplay:10.37 W/m2 BKN
05:50 19.4 °C 15.1 °C 1014.8 hPa Calm     76% 0 mm WeatherDisplay:10.37 W/m2 BKN
05:55 19.3 °C 15.2 °C 1014.8 hPa Calm     77% 0 mm WeatherDisplay:10.37 W/m2 BKN
06:00 19.3 °C 15.1 °C 1014.8 hPa Calm     77% 0 mm WeatherDisplay:10.37 W/m2 BKN
06:05 19.2 °C 15.1 °C 1014.8 hPa Calm     77% 0 mm WeatherDisplay:10.37 W/m2 BKN
06:10 19.1 °C 15.2 °C 1014.8 hPa Calm     78% 0 mm WeatherDisplay:10.37 W/m2 BKN
06:15 19.1 °C 15.2 °C 1014.8 hPa Calm     78% 0 mm WeatherDisplay:10.37 W/m2 BKN
06:20 19.1 °C 15.1 °C 1014.8 hPa Calm     78% 0 mm WeatherDisplay:10.37 W/m2 BKN
06:25 19 °C 15.3 °C 1014.8 hPa Calm     79% 0 mm WeatherDisplay:10.37 W/m2 BKN
06:30 18.9 °C 15.2 °C 1014.8 hPa Calm     79% 0 mm WeatherDisplay:10.37 W/m2 BKN
06:35 18.9 °C 15.4 °C 1014.8 hPa Calm     80% 0 mm WeatherDisplay:10.37 W/m2 BKN
06:40 18.8 °C 15.1 °C 1014.8 hPa Calm     79% 0 mm WeatherDisplay:10.37 W/m2 BKN
06:45 18.8 °C 15.3 °C 1015.1 hPa Calm     80% 0 mm WeatherDisplay:10.37 W/m2 BKN
06:50 18.8 °C 15.1 °C 1015.1 hPa Calm     79% 0 mm WeatherDisplay:10.37 W/m2 BKN
06:55 18.8 °C 15.3 °C 1015.5 hPa Calm     80% 0 mm WeatherDisplay:10.37 W/m2 BKN
07:00 18.8 °C 15.1 °C 1015.5 hPa Calm     79% 0 mm WeatherDisplay:10.37 W/m2 BKN
07:10 18.8 °C 15.3 °C 1015.5 hPa Calm     80% 0 mm WeatherDisplay:10.37 W/m2 BKN
07:15 18.8 °C 15.3 °C 1015.5 hPa Calm     80% 0 mm WeatherDisplay:10.37 W/m2 BKN
07:20 18.8 °C 15.4 °C 1015.5 hPa Calm     81% 0 mm WeatherDisplay:10.37 W/m2 BKN
07:30 18.7 °C 15.3 °C 1015.8 hPa Calm     81% 0 mm WeatherDisplay:10.37 W/m2 BKN
07:35 18.7 °C 15.6 °C 1015.8 hPa Calm     82% 0 mm WeatherDisplay:10.37 W/m2 BKN
07:40 18.7 °C 15.6 °C 1015.8 hPa Calm     82% 0 mm WeatherDisplay:10.37 W/m2 BKN
07:45 18.7 °C 15.6 °C 1015.8 hPa Calm     82% 0 mm WeatherDisplay:10.37 W/m2 BKN
07:50 18.7 °C 15.6 °C 1015.8 hPa Calm     82% 0 mm WeatherDisplay:10.37 W/m2 BKN
07:55 18.7 °C 15.8 °C 1015.8 hPa Calm     83% 0 mm WeatherDisplay:10.37 W/m2 BKN
08:00 18.8 °C 15.8 °C 1015.8 hPa Calm     83% 0 mm WeatherDisplay:10.37 W/m2 BKN
08:05 18.8 °C 15.7 °C 1015.8 hPa Calm     82% 0 mm WeatherDisplay:10.37 W/m2 BKN
08:10 18.8 °C 15.7 °C 1015.8 hPa Calm     82% 0 mm WeatherDisplay:10.37 W/m2 BKN
08:15 18.9 °C 15.8 °C 1016.1 hPa Calm     82% 0 mm WeatherDisplay:10.37 W/m2 BKN
08:20 19.1 °C 15.9 °C 1016.1 hPa Calm     82% 0 mm WeatherDisplay:10.37 W/m2 BKN
08:25 19.2 °C 15.8 °C 1016.1 hPa Calm     81% 0 mm WeatherDisplay:10.37 W/m2 BKN
08:30 19.4 °C 16.1 °C 1016.1 hPa Calm     81% 0 mm WeatherDisplay:10.37 W/m2 BKN
08:35 19.6 °C 16 °C 1016.1 hPa Calm     80% 0 mm WeatherDisplay:10.37 W/m2 BKN
08:40 19.7 °C 16.2 °C 1016.1 hPa Calm     80% 0 mm WeatherDisplay:10.37 W/m2 BKN
08:45 19.9 °C 16.6 °C 1016.1 hPa Calm     81% 0 mm WeatherDisplay:10.37 W/m2 BKN
08:50 20.1 °C 16.5 °C 1016.1 hPa Calm     80% 0 mm WeatherDisplay:10.37 W/m2 BKN
08:55 20.2 °C 16.2 °C 1016.1 hPa Calm     78% 0 mm WeatherDisplay:10.37 W/m2 BKN
09:00 20.2 °C 16.4 °C 1016.1 hPa Calm     79% 0 mm WeatherDisplay:10.37 W/m2 BKN
09:05 20.3 °C 16.6 °C 1016.1 hPa Calm     79% 0 mm WeatherDisplay:10.37 W/m2 BKN
09:10 20.4 °C 16.9 °C 1016.1 hPa Calm     80% 0 mm WeatherDisplay:10.37 W/m2 BKN
09:15 20.6 °C 16.8 °C 1016.1 hPa Calm     79% 0 mm WeatherDisplay:10.37 W/m2 BKN
09:20 20.7 °C 16.9 °C 1016.1 hPa Calm     79% 0 mm WeatherDisplay:10.37 W/m2 BKN
09:25 20.9 °C 16.7 °C 1016.1 hPa Calm     77% 0 mm WeatherDisplay:10.37 W/m2 BKN
09:30 21.1 °C 16.7 °C 1016.1 hPa Calm   1.6 km/h 76% 0 mm WeatherDisplay:10.37 W/m2 BKN
09:40 21.4 °C 16.8 °C 1016.5 hPa Calm     75% 0 mm WeatherDisplay:10.37 W/m2 BKN
09:45 21.6 °C 17 °C 1016.5 hPa Calm     75% 0 mm WeatherDisplay:10.37 W/m2 BKN
09:50 21.8 °C 16.9 °C 1016.5 hPa Calm     74% 0 mm WeatherDisplay:10.37 W/m2 BKN
09:55 22 °C 16.9 °C 1016.5 hPa Calm   1.6 km/h 73% 0 mm WeatherDisplay:10.37 W/m2 BKN
10:00 22.3 °C 17.2 °C 1016.5 hPa Calm   4.8 km/h 73% 0 mm WeatherDisplay:10.37 W/m2 BKN
10:10 22.8 °C 17.2 °C 1016.5 hPa North 1.6 km/h 3.2 km/h 71% 0 mm WeatherDisplay:10.37 W/m2 BKN
10:15 22.8 °C 17.3 °C 1016.5 hPa Calm   3.2 km/h 71% 0 mm WeatherDisplay:10.37 W/m2 BKN
10:20 22.9 °C 17.4 °C 1016.5 hPa Calm   1.6 km/h 71% 0 mm WeatherDisplay:10.37 W/m2 BKN
10:25 22.9 °C 17.4 °C 1016.5 hPa WNW 1.6 km/h 1.6 km/h 71% 0 mm WeatherDisplay:10.37 W/m2 BKN
10:30 23.2 °C 17.6 °C 1016.5 hPa Calm   1.6 km/h 71% 0 mm WeatherDisplay:10.37 W/m2 BKN
10:40 23.3 °C 17.8 °C 1016.8 hPa Calm   1.6 km/h 71% 0 mm WeatherDisplay:10.37 W/m2 BKN
10:45 23.7 °C 17.6 °C 1016.8 hPa Calm   1.6 km/h 69% 0 mm WeatherDisplay:10.37 W/m2 BKN
10:55 23.8 °C 18.1 °C 1016.5 hPa Calm   1.6 km/h 70% 0 mm WeatherDisplay:10.37 W/m2 BKN
11:00 23.9 °C 17.8 °C 1016.5 hPa Calm   1.6 km/h 69% 0 mm WeatherDisplay:10.37 W/m2 BKN
11:10 23.9 °C 18.1 °C 1016.5 hPa Calm   1.6 km/h 70% 0 mm WeatherDisplay:10.37 W/m2 BKN
11:15 24.1 °C 18 °C 1016.5 hPa Calm   1.6 km/h 69% 0 mm WeatherDisplay:10.37 W/m2 BKN
11:20 24.2 °C 17.9 °C 1016.5 hPa Calm   1.6 km/h 68% 0 mm WeatherDisplay:10.37 W/m2 BKN
11:25 24.4 °C 17.9 °C 1016.5 hPa Calm   1.6 km/h 67% 0 mm WeatherDisplay:10.37 W/m2 BKN
11:30 24.3 °C 17.8 °C 1016.5 hPa Calm   3.2 km/h 67% 0 mm WeatherDisplay:10.37 W/m2 BKN
11:35 24.5 °C 18.2 °C 1016.5 hPa Calm   1.6 km/h 68% 0 mm WeatherDisplay:10.37 W/m2 BKN
11:40 24.7 °C 18.1 °C 1016.5 hPa Calm   1.6 km/h 67% 0 mm WeatherDisplay:10.37 W/m2 BKN
11:45 24.5 °C 17.9 °C 1016.5 hPa Calm   1.6 km/h 67% 0 mm WeatherDisplay:10.37 W/m2 BKN
11:50 24.5 °C 18.2 °C 1016.8 hPa Calm     68% 0 mm WeatherDisplay:10.37 W/m2 BKN
11:55 24.5 °C 17.9 °C 1016.8 hPa Calm   1.6 km/h 67% 0 mm WeatherDisplay:10.37 W/m2 BKN
12:00 24.3 °C 17.8 °C 1016.8 hPa Calm   1.6 km/h 67% 0 mm WeatherDisplay:10.37 W/m2 BKN
12:05 24.3 °C 18.1 °C 1016.8 hPa Calm     68% 0 mm WeatherDisplay:10.37 W/m2 BKN
12:10 24.3 °C 18 °C 1016.8 hPa Calm     68% 0 mm WeatherDisplay:10.37 W/m2 BKN
12:15 24.3 °C 18.2 °C 1016.5 hPa Calm   1.6 km/h 69% 0 mm WeatherDisplay:10.37 W/m2 BKN
12:20 24.3 °C 18 °C 1016.5 hPa Calm     68% 0 mm WeatherDisplay:10.37 W/m2 BKN
12:25 24.4 °C 18.4 °C 1016.5 hPa Calm   1.6 km/h 69% 0 mm WeatherDisplay:10.37 W/m2 BKN
12:30 24.5 °C 18 °C 1016.5 hPa Calm   1.6 km/h 67% 0 mm WeatherDisplay:10.37 W/m2 BKN
12:40 25 °C 18.2 °C 1016.1 hPa Calm   3.2 km/h 66% 0 mm WeatherDisplay:10.37 W/m2 BKN
12:45 25.4 °C 18.3 °C 1016.1 hPa WNW 1.6 km/h 3.2 km/h 65% 0 mm WeatherDisplay:10.37 W/m2 BKN
12:50 25.6 °C 18.3 °C 1016.1 hPa Calm   1.6 km/h 64% 0 mm WeatherDisplay:10.37 W/m2 OVC
12:55 25.6 °C 18.3 °C 1016.1 hPa Calm   1.6 km/h 64% 0 mm WeatherDisplay:10.37 W/m2 OVC
13:00 26.1 °C 18.4 °C 1016.1 hPa Calm     63% 0 mm WeatherDisplay:10.37 W/m2 OVC
13:05 26.2 °C 18.4 °C 1016.1 hPa Calm     62% 0 mm WeatherDisplay:10.37 W/m2 OVC
13:10 26.3 °C 17.9 °C 1016.1 hPa Calm     60% 0 mm WeatherDisplay:10.37 W/m2 OVC
13:15 26.5 °C 18.6 °C 1016.1 hPa Calm     62% 0 mm WeatherDisplay:10.37 W/m2 OVC
13:20 26.4 °C 18.5 °C 1015.8 hPa Calm     62% 0 mm WeatherDisplay:10.37 W/m2 BKN
13:25 26.2 °C 18.4 °C 1015.8 hPa Calm     62% 0 mm WeatherDisplay:10.37 W/m2 BKN
13:30 26.1 °C 18.5 °C 1015.8 hPa Calm     63% 0 mm WeatherDisplay:10.37 W/m2 BKN
13:40 26.3 °C 18.2 °C 1015.8 hPa Calm     61% 0 mm WeatherDisplay:10.37 W/m2 BKN
13:45 26.4 °C 18.6 °C 1015.8 hPa Calm     62% 0 mm WeatherDisplay:10.37 W/m2 BKN
13:50 26.6 °C 18.2 °C 1015.8 hPa North 1.6 km/h 3.2 km/h 60% 0 mm WeatherDisplay:10.37 W/m2 BKN
13:55 26.4 °C 18 °C 1015.8 hPa Calm   3.2 km/h 60% 0 mm WeatherDisplay:10.37 W/m2 BKN
14:00 26.7 °C 18.8 °C 1015.8 hPa Calm   1.6 km/h 62% 0 mm WeatherDisplay:10.37 W/m2 BKN
14:05 27.2 °C 18.8 °C 1015.5 hPa Calm   3.2 km/h 60% 0 mm WeatherDisplay:10.37 W/m2 BKN
14:15 27.2 °C 18.2 °C 1015.5 hPa Calm   1.6 km/h 58% 0 mm WeatherDisplay:10.37 W/m2 BKN
14:20 27.1 °C 18.4 °C 1015.5 hPa Calm   1.6 km/h 59% 0 mm WeatherDisplay:10.37 W/m2 BKN
14:25 26.9 °C 17.6 °C 1015.5 hPa Calm   1.6 km/h 57% 0 mm WeatherDisplay:10.37 W/m2 BKN
14:30 26.6 °C 17.9 °C 1015.5 hPa Calm   1.6 km/h 59% 0 mm WeatherDisplay:10.37 W/m2 BKN
14:40 26.5 °C 18.4 °C 1015.5 hPa Calm   1.6 km/h 61% 0 mm WeatherDisplay:10.37 W/m2 BKN
14:45 26.7 °C 18 °C 1015.5 hPa Calm   3.2 km/h 59% 0 mm WeatherDisplay:10.37 W/m2 BKN
14:55 27 °C 18.6 °C 1015.1 hPa Calm   1.6 km/h 60% 0 mm WeatherDisplay:10.37 W/m2 BKN
15:00 27.2 °C 18.5 °C 1015.1 hPa Calm   1.6 km/h 59% 0 mm WeatherDisplay:10.37 W/m2 BKN
15:05 27.2 °C 18.2 °C 1015.1 hPa Calm     58% 0 mm WeatherDisplay:10.37 W/m2 BKN
15:10 27.2 °C 17.9 °C 1015.1 hPa Calm     57% 0 mm WeatherDisplay:10.37 W/m2 BKN
15:15 27.2 °C 18.4 °C 1015.1 hPa Calm   3.2 km/h 59% 0 mm WeatherDisplay:10.37 W/m2 BKN
15:20 27.1 °C 18.9 °C 1014.8 hPa Calm   1.6 km/h 61% 0 mm WeatherDisplay:10.37 W/m2 BKN
15:25 26.9 °C 18.3 °C 1014.8 hPa Calm   1.6 km/h 59% 0 mm WeatherDisplay:10.37 W/m2 BKN
15:35 27 °C 18.1 °C 1014.8 hPa Calm   1.6 km/h 58% 0 mm WeatherDisplay:10.37 W/m2 BKN
15:40 27 °C 18.3 °C 1014.8 hPa Calm   1.6 km/h 59% 0 mm WeatherDisplay:10.37 W/m2 BKN
15:45 27.1 °C 18.3 °C 1014.8 hPa Calm   1.6 km/h 59% 0 mm WeatherDisplay:10.37 W/m2 BKN
15:50 27.2 °C 19 °C 1014.8 hPa Calm   1.6 km/h 61% 0 mm WeatherDisplay:10.37 W/m2 BKN
15:55 27.2 °C 18.5 °C 1014.8 hPa Calm     59% 0 mm WeatherDisplay:10.37 W/m2 BKN
16:00 27.2 °C 18.4 °C 1014.8 hPa NE 1.6 km/h 3.2 km/h 59% 0 mm WeatherDisplay:10.37 W/m2 BKN
16:10 27.2 °C 18.2 °C 1014.8 hPa Calm   1.6 km/h 58% 0 mm WeatherDisplay:10.37 W/m2 BKN
16:15 27.2 °C 18.3 °C 1014.8 hPa Calm     58% 0 mm WeatherDisplay:10.37 W/m2 BKN
16:20 27.2 °C 18.5 °C 1014.8 hPa Calm   1.6 km/h 59% 0 mm WeatherDisplay:10.37 W/m2 BKN
16:30 26.9 °C 18.5 °C 1014.8 hPa Calm   1.6 km/h 60% 0 mm WeatherDisplay:10.37 W/m2 BKN
16:35 26.8 °C 18.2 °C 1014.8 hPa Calm   1.6 km/h 59% 0 mm WeatherDisplay:10.37 W/m2 BKN
16:40 26.8 °C 18.4 °C 1014.8 hPa Calm   1.6 km/h 60% 0 mm WeatherDisplay:10.37 W/m2 BKN
16:45 27 °C 18.8 °C 1014.4 hPa Calm   1.6 km/h 61% 0 mm WeatherDisplay:10.37 W/m2 BKN
16:50 27.1 °C 18.7 °C 1014.8 hPa Calm   3.2 km/h 60% 0 mm WeatherDisplay:10.37 W/m2 BKN
16:55 27.2 °C 18.8 °C 1014.8 hPa Calm     60% 0 mm WeatherDisplay:10.37 W/m2 BKN
17:00 27.3 °C 18.6 °C 1014.4 hPa Calm   1.6 km/h 59% 0 mm WeatherDisplay:10.37 W/m2 BKN
17:05 27.2 °C 18.5 °C 1014.8 hPa Calm   1.6 km/h 59% 0 mm WeatherDisplay:10.37 W/m2 BKN
17:10 27.2 °C 18.4 °C 1014.8 hPa Calm   1.6 km/h 59% 0 mm WeatherDisplay:10.37 W/m2 BKN
17:15 27.2 °C 18.5 °C 1014.8 hPa Calm     59% 0 mm WeatherDisplay:10.37 W/m2 BKN
17:20 27.2 °C 18.5 °C 1014.8 hPa Calm     59% 0 mm WeatherDisplay:10.37 W/m2 BKN
17:25 27.2 °C 18.2 °C 1014.8 hPa Calm   1.6 km/h 58% 0 mm WeatherDisplay:10.37 W/m2 BKN
17:30 27.2 °C 18.8 °C 1014.8 hPa Calm   1.6 km/h 60% 0 mm WeatherDisplay:10.37 W/m2 BKN
17:40 27.4 °C 18.7 °C 1014.8 hPa Calm     59% 0 mm WeatherDisplay:10.37 W/m2 BKN
17:45 27.5 °C 18.8 °C 1014.8 hPa Calm     59% 0 mm WeatherDisplay:10.37 W/m2 BKN
17:50 27.5 °C 18.8 °C 1014.8 hPa Calm   1.6 km/h 59% 0 mm WeatherDisplay:10.37 W/m2 BKN
17:55 27.3 °C 18.4 °C 1014.8 hPa Calm   1.6 km/h 58% 0 mm WeatherDisplay:10.37 W/m2 BKN
18:00 27.3 °C 17.7 °C 1014.8 hPa Calm     56% 0 mm WeatherDisplay:10.37 W/m2 BKN
18:05 27.3 °C 18.6 °C 1015.1 hPa Calm     59% 0 mm WeatherDisplay:10.37 W/m2 BKN
18:10 27.2 °C 19 °C 1015.1 hPa Calm     61% 0 mm WeatherDisplay:10.37 W/m2 BKN
18:15 27.1 °C 19.2 °C 1015.1 hPa Calm     62% 0 mm WeatherDisplay:10.37 W/m2 BKN
18:20 26.9 °C 18.8 °C 1015.1 hPa Calm   1.6 km/h 61% 0 mm WeatherDisplay:10.37 W/m2 BKN
18:25 26.8 °C 18.6 °C 1015.1 hPa Calm     61% 0 mm WeatherDisplay:10.37 W/m2 BKN
18:30 26.7 °C 19.1 °C 1015.1 hPa Calm     63% 0 mm WeatherDisplay:10.37 W/m2 BKN
18:40 26.5 °C 18.9 °C 1015.1 hPa Calm     63% 0 mm WeatherDisplay:10.37 W/m2 BKN
18:45 26.4 °C 19 °C 1015.1 hPa Calm     64% 0 mm WeatherDisplay:10.37 W/m2 BKN
18:50 26.2 °C 18.9 °C 1015.1 hPa Calm     64% 0 mm WeatherDisplay:10.37 W/m2 BKN
18:55 26.1 °C 18.8 °C 1015.1 hPa Calm     64% 0 mm WeatherDisplay:10.37 W/m2 BKN
19:00 26.1 °C 19.2 °C 1015.1 hPa Calm     66% 0 mm WeatherDisplay:10.37 W/m2 BKN
19:10 25.8 °C 19 °C 1015.1 hPa Calm     66% 0 mm WeatherDisplay:10.37 W/m2 BKN
19:15 25.7 °C 19.1 °C 1015.1 hPa Calm     67% 0 mm WeatherDisplay:10.37 W/m2 BKN
19:20 25.5 °C 19.2 °C 1015.1 hPa Calm     68% 0 mm WeatherDisplay:10.37 W/m2 OVC
19:25 25.4 °C 19.1 °C 1015.1 hPa Calm     68% 0 mm WeatherDisplay:10.37 W/m2 OVC
19:30 25.3 °C 19.2 °C 1015.1 hPa Calm     69% 0 mm WeatherDisplay:10.37 W/m2 OVC
19:40 25 °C 18.9 °C 1015.1 hPa Calm     69% 0 mm WeatherDisplay:10.37 W/m2 OVC
19:45 24.9 °C 18.8 °C 1015.1 hPa Calm     69% 0 mm WeatherDisplay:10.37 W/m2 OVC
19:50 24.8 °C 18.9 °C 1015.1 hPa Calm     70% 0 mm WeatherDisplay:10.37 W/m2 OVC
19:55 24.7 °C 18.9 °C 1015.5 hPa Calm     70% 0 mm WeatherDisplay:10.37 W/m2 OVC
20:00 24.7 °C 18.8 °C 1015.5 hPa Calm     70% 0 mm WeatherDisplay:10.37 W/m2 OVC
20:05 24.6 °C 19 °C 1015.5 hPa Calm     71% 0 mm WeatherDisplay:10.37 W/m2 OVC
20:10 24.5 °C 18.7 °C 1015.5 hPa Calm     70% 0 mm WeatherDisplay:10.37 W/m2 OVC
20:15 24.4 °C 18.8 °C 1015.5 hPa Calm     71% 0 mm WeatherDisplay:10.37 W/m2 OVC
20:20 24.4 °C 18.8 °C 1015.5 hPa Calm     71% 0 mm WeatherDisplay:10.37 W/m2 OVC
20:25 24.3 °C 18.9 °C 1015.5 hPa Calm     72% 0 mm WeatherDisplay:10.37 W/m2 OVC
20:30 24.3 °C 18.9 °C 1015.5 hPa Calm     72% 0 mm WeatherDisplay:10.37 W/m2 OVC
20:40 24.1 °C 19 °C 1015.5 hPa Calm     73% 0 mm WeatherDisplay:10.37 W/m2 OVC
20:45 24.1 °C 18.9 °C 1015.5 hPa Calm     73% 0 mm WeatherDisplay:10.37 W/m2 OVC
20:50 24.1 °C 18.9 °C 1015.5 hPa Calm     73% 0 mm WeatherDisplay:10.37 W/m2 OVC
20:55 24 °C 18.8 °C 1015.5 hPa Calm     73% 0 mm WeatherDisplay:10.37 W/m2 OVC
21:00 23.9 °C 18.8 °C 1015.5 hPa Calm     73% 0 mm WeatherDisplay:10.37 W/m2 OVC
21:05 23.9 °C 18.8 °C 1015.5 hPa Calm     73% 0 mm WeatherDisplay:10.37 W/m2 OVC
21:10 23.8 °C 18.7 °C 1015.5 hPa Calm     73% 0 mm WeatherDisplay:10.37 W/m2 OVC
21:15 23.8 °C 18.9 °C 1015.5 hPa Calm     74% 0 mm WeatherDisplay:10.37 W/m2 OVC
21:20 23.7 °C 18.8 °C 1015.5 hPa Calm     74% 0 mm WeatherDisplay:10.37 W/m2 OVC
21:25 23.7 °C 18.9 °C 1015.5 hPa Calm     75% 0 mm WeatherDisplay:10.37 W/m2 OVC
21:30 23.6 °C 18.9 °C 1015.5 hPa Calm     75% 0 mm WeatherDisplay:10.37 W/m2 OVC
21:40 23.6 °C 18.8 °C 1015.5 hPa Calm     75% 0 mm WeatherDisplay:10.37 W/m2 OVC
21:45 23.5 °C 19 °C 1015.5 hPa Calm     76% 0 mm WeatherDisplay:10.37 W/m2 OVC
21:50 23.4 °C 18.7 °C 1015.5 hPa Calm     75% 0 mm WeatherDisplay:10.37 W/m2 OVC
21:55 23.3 °C 18.9 °C 1015.5 hPa Calm     76% 0 mm WeatherDisplay:10.37 W/m2 OVC
22:00 23.3 °C 18.8 °C 1015.5 hPa Calm     76% 0 mm WeatherDisplay:10.37 W/m2 OVC
22:05 23.2 °C 18.7 °C 1015.8 hPa Calm     76% 0 mm WeatherDisplay:10.37 W/m2 OVC
22:10 23.1 °C 18.8 °C 1015.8 hPa Calm     77% 0 mm WeatherDisplay:10.37 W/m2 OVC
22:15 23.1 °C 18.8 °C 1015.8 hPa Calm     77% 0 mm WeatherDisplay:10.37 W/m2 OVC
22:20 22.9 °C 18.7 °C 1015.8 hPa Calm     77% 0 mm WeatherDisplay:10.37 W/m2 BKN
22:25 22.9 °C 18.7 °C 1015.8 hPa Calm     77% 0 mm WeatherDisplay:10.37 W/m2 BKN
22:30 22.9 °C 18.8 °C 1015.8 hPa Calm     78% 0 mm WeatherDisplay:10.37 W/m2 BKN
22:35 22.8 °C 18.8 °C 1015.8 hPa Calm     78% 0 mm WeatherDisplay:10.37 W/m2 BKN
22:40 22.8 °C 18.9 °C 1015.8 hPa Calm     79% 0 mm WeatherDisplay:10.37 W/m2 BKN
22:45 22.7 °C 18.9 °C 1015.8 hPa Calm     79% 0 mm WeatherDisplay:10.37 W/m2 BKN
22:50 22.7 °C 18.8 °C 1015.8 hPa Calm     79% 0 mm WeatherDisplay:10.37 W/m2 BKN
22:55 22.6 °C 18.8 °C 1015.8 hPa Calm     79% 0 mm WeatherDisplay:10.37 W/m2 BKN
23:00 22.6 °C 18.8 °C 1015.8 hPa Calm     79% 0 mm WeatherDisplay:10.37 W/m2 BKN
23:10 22.4 °C 18.8 °C 1015.8 hPa Calm     80% 0 mm WeatherDisplay:10.37 W/m2 BKN
23:15 22.3 °C 18.9 °C 1015.8 hPa Calm     81% 0 mm WeatherDisplay:10.37 W/m2 BKN
23:20 22.3 °C 18.9 °C 1016.1 hPa Calm     81% 0 mm WeatherDisplay:10.37 W/m2 OVC
23:25 22.3 °C 18.8 °C 1016.1 hPa Calm     81% 0 mm WeatherDisplay:10.37 W/m2 OVC
23:30 22.3 °C 18.8 °C 1016.1 hPa Calm     81% 0 mm WeatherDisplay:10.37 W/m2 OVC
23:35 22.3 °C 18.8 °C 1016.1 hPa Calm     81% 0 mm WeatherDisplay:10.37 W/m2 OVC
23:40 22.2 °C 19 °C 1016.1 hPa Calm     82% 0 mm WeatherDisplay:10.37 W/m2 OVC
23:45 22.2 °C 19 °C 1016.1 hPa Calm     82% 0 mm WeatherDisplay:10.37 W/m2 OVC
23:50 22.2 °C 19 °C 1016.1 hPa Calm     82% 0 mm WeatherDisplay:10.37 W/m2 OVC
23:55 22.2 °C 18.9 °C 1016.1 hPa Calm     82% 0 mm WeatherDisplay:10.37 W/m2 OVC
Piedmont Bend
Compliments of Weather Underground - 4 mb